Weather History for Badajoz, Spain

Change the Weather History Date:

Saturday, July 6, 2013

  Actual Average Record
Temperature  
Mean Temperature 86 °F -  
Max Temperature 102 °F - - ()
Min Temperature 71 °F - - ()
Cooling Degree Days 22    
Growing Degree Days 36 (Base 50)    
Moisture  
Dew Point 57 °F    
Average Humidity 32    
Maximum Humidity 64    
Minimum Humidity 20    
Precipitation  
Precipitation 0.00 in 0.01 in - ()
Sea Level Pressure  
Sea Level Pressure 30.06 in    
Wind  
Wind Speed 5 mph ()    
Max Wind Speed 13 mph    
Max Gust Speed -    
Visibility 19.0 miles    
Events      
T = Trace of Precipitation, MM = Missing Value Source: Averaged Metar Reports

Daily Weather History Graph

Daily Weather History Graph

Search for Another Location

Airport:

Trip Planner

Search our weather history database for the weather conditions in past years. The results will help you decide how hot, cold, wet, or windy it might be!

Date:

Astronomy

Jul. 06, 2013 Rise Set
Actual Time 7:08 AM CEST 9:55 PM CEST
Civil Twilight 6:36 AM CEST 10:27 PM CEST
Nautical Twilight 5:56 AM CEST 11:06 PM CEST
Astronomical Twilight 5:11 AM CEST 11:52 PM CEST
Moon 5:42 AM CEST (7/6) 8:27 PM CEST (7/6)
Length of Visible Light 15h 50m
Length of Day
14h 47m
Waning Crescent, 3% of the Moon is Illuminated
Jul 6
Waning Crescent
Jul 8
New
Jul 16
First Quarter
Jul 22
Full
Jul 29
Last Quarter

Hourly Weather History & Observations

Time (CEST) Temp. Heat Index Dew Point Humidity Pressure Visibility Wind Dir Wind Speed Gust Speed Precip Events Conditions
12:00 AM 91.4 °F - 51.8 °F 26% 30.04 in - SW 6.9 mph - N/A   Clear
6:00 AM 75.2 °F - 53.6 °F 47% 30.06 in - SSE 2.3 mph - N/A   Clear
7:00 AM 73.4 °F - 59.0 °F 61% 30.09 in - SE 3.5 mph - N/A   Clear
8:00 AM 75 °F - 61 °F 52% 30.08 in 19 mi East 5.8 mph - -  
8:00 AM 71.6 °F - 59.0 °F 64% 30.09 in - ESE 3.5 mph - N/A   Clear
9:00 AM 78.8 °F - 53.6 °F 42% 30.09 in - ESE 3.5 mph - N/A   Clear
10:00 AM 82.4 °F 82.0 °F 57.2 °F 42% 30.12 in - East 4.6 mph - N/A   Clear
11:00 AM 87.8 °F 86.5 °F 57.2 °F 35% 30.12 in - ENE 5.8 mph - N/A   Clear
12:00 PM 89.6 °F 88.1 °F 57.2 °F 33% 30.09 in - ENE 4.6 mph - N/A   Clear
1:00 PM 93.2 °F 90.8 °F 53.6 °F 26% 30.09 in - ENE 6.9 mph - N/A   Clear
2:00 PM 98 °F - 67 °F 27% 30.05 in 19 mi ENE 12.7 mph - -   Clear
2:00 PM 96.8 °F - 50.0 °F 20% 30.09 in - East 10.4 mph - N/A   Clear
3:00 PM 98.6 °F 97.2 °F 55.4 °F 24% 30.06 in - ENE 8.1 mph - N/A   Clear
4:00 PM 100.4 °F - 51.8 °F 20% 30.06 in - ENE 8.1 mph - N/A   Clear
5:00 PM 102.2 °F 100.4 °F 53.6 °F 20% 30.04 in - East 5.8 mph - N/A   Clear
6:00 PM 102.2 °F 100.4 °F 53.6 °F 20% 30.01 in - East 6.9 mph - N/A   Clear
7:00 PM 102.2 °F 100.9 °F 55.4 °F 21% 30.01 in - East 6.9 mph - N/A   Clear
8:00 PM 102 °F - 68 °F 24% 29.96 in 19 mi ENE 6.9 mph - -   Clear
8:00 PM 102.2 °F 100.9 °F 55.4 °F 21% 30.01 in - East 3.5 mph - N/A   Clear
9:00 PM 100.4 °F 99.7 °F 57.2 °F 24% 30.01 in - Variable 1.2 mph - N/A   Clear
10:00 PM 93.2 °F 92.6 °F 59.0 °F 32% 30.01 in - Calm Calm - N/A   Clear